Regional Weather Roundup
Issued by NWS

Home | Current Version | Previous Version | Graphics & Text | Print | Product List | Glossary On
Versions: 1 2 3 4 5 6 7 8 9 10 11 12 13 14 15 16 17 18 19 20 21 22 23 24 25 26 27 28 29 30 31 32 33 34 35 36 37 38 39 40 41 42 43 44 45 46 47 48 49 50
000
ASUS43 KTOP 120159
RWRKS

WEATHER ROUNDUP FOR KANSAS
NATIONAL WEATHER SERVICE GOODLAND KS
900 PM CDT FRI JUL 11 2014

NOTE:  "FAIR" INDICATES FEW OR NO CLOUDS BELOW 12,000 FEET WITH NO
SIGNIFICANT WEATHER AND/OR OBSTRUCTIONS TO VISIBILITY.

KSZ001>006-013>018-027>032-041>047-120300-
NORTHWEST KANSAS

CITY           SKY/WX    TMP DP  RH WIND       PRES   REMARKS
GOODLAND       CLEAR     85  51  31 S15       29.98R
HAYS           CLEAR     84  55  37 S13       29.98R
HILL CITY      CLEAR     89  57  33 S14G22    29.95R
RUSSELL        CLEAR     84  64  50 S13       29.97R
$$

KSZ061>065-074>080-084>089-120300-
SOUTHWEST KANSAS

CITY           SKY/WX    TMP DP  RH WIND       PRES   REMARKS
DODGE CITY     CLEAR     83  57  41 S12       30.02R
ELKHART          N/A    N/A N/A N/A MISG        N/A
GARDEN CITY    CLEAR     82  55  39 S10       30.02R
GREAT BEND     CLEAR     82  64  54 S10       29.98R
LIBERAL        CLEAR     88  54  31 S14       30.04R
$$

KSZ066>073-081>083-090>101-120300-
SOUTHEAST KANSAS

CITY           SKY/WX    TMP DP  RH WIND       PRES   REMARKS
CHANUTE        CLEAR     81  70  69 S8        30.05S
COFFEYVILLE    CLEAR     83  71  67 SE7       30.04S
HUTCHINSON     CLEAR     84  64  50 S10       30.00R
MEDICINE LODGE   N/A     84  64  50 S8        29.99S
NEWTON         CLEAR     82  63  51 S9        30.05S
PARSONS        CLEAR     82  70  66 SE3       30.06S
WICHITA INTL   PTCLDY    83  65  54 S12       30.01R
WICHITA JABRA  CLEAR     81  67  62 S8        30.02R
WINFIELD       CLEAR     81  70  69 SE6       30.03S
$$

KSZ007>012-019>026-033>040-048>060-102>105-120300-
NORTHEAST KANSAS

CITY           SKY/WX    TMP DP  RH WIND       PRES   REMARKS
CONCORDIA      CLEAR     85  65  51 S10       29.97R
EMPORIA        CLEAR     81  68  64 S10       30.02S
LAWRENCE       CLEAR     86  71  60 S9        30.00R
MANHATTAN      CLEAR     88  67  49 S12       29.97R
OLATHE IND     CLEAR     83  72  69 S8        30.03R
OLATHE EXE     CLEAR     82  73  74 S8        30.02R
SALINA         CLEAR     88  64  44 S10       29.97R
TOPEKA BILLARD CLEAR     88  70  55 S10       29.99R
TOPEKA FORBES  CLEAR     86  70  58 S10       30.00S
$$



USA.gov is the U.S. government's official web portal to all federal, state and local government web resources and services.